Location: A�t Bou Chrif
(32.7193°N, 5.2385°W)
Time: 03:52:46
(UTC+00:00)

Cosmos 1954 Rocket - Pass Details

Date: 08 August 2020
Orbit: 753 x 781 km, 74.0° (Epoch: 20 September)

Event Time Altitude Azimuth Distance (km) Brightness Sun altitude
Exits shadow 21:46:55 47° 239° (WSW) 1,027 4.6 -28.3°
Maximum altitude 21:48:09 59° 288° (WNW) 896 4.5 -28.5°
Drops below altitude 10° 21:53:24 10° 8° (N) 2,338 6.9 -29.2°
Sets 21:55:50 0° 12° (NNE) 3,269 7.7 -29.6°
